Change the Weather History Date:

Friday, December 20, 2013

  Actual Average (KESN) Record (KESN)
Temperature  
Mean Temperature 50 °F -  
Max Temperature 59 °F 50 °F 65 °F (1957)
Min Temperature 42 °F 30 °F 10 °F (1950)
Degree Days  
Heating Degree Days 14    
Moisture  
Dew Point 40 °F    
Average Humidity 64    
Maximum Humidity 82    
Minimum Humidity 47    
Precipitation  
Precipitation 0.00 in - - ()
Sea Level Pressure  
Sea Level Pressure 30.10 in    
Wind  
Wind Speed 7 mph (South)    
Max Wind Speed 12 mph    
Max Gust Speed 17 mph    
Visibility 10 miles    
Events      
Averages and records for this station are not official NWS values.
T = Trace of Precipitation, MM = Missing Value Source: NWS Daily Summary

Daily Weather History Graph

Daily Weather History Graph

Search for Another Location

Airport or City:

Trip Planner

Search our weather history database for the weather conditions in past years. The results will help you decide how hot, cold, wet, or windy it might be!

Date:

Astronomy

Dec. 20, 2013 Rise Set
Actual Time 7:17 AM EST 4:46 PM EST
Civil Twilight 6:47 AM EST 5:15 PM EST
Nautical Twilight 6:14 AM EST 5:49 PM EST
Astronomical Twilight 5:42 AM EST 6:21 PM EST
Moon 8:02 PM EST (12/20) 9:12 AM EST (12/20)
Length of Visible Light 10h 28m
Length of Day
9h 28m
Waning Gibbous, 90% of the Moon is Illuminated
Dec 20
Waning Gibbous
Dec 25
Last Quarter
Jan 1
New
Jan 7
First Quarter
Jan 15
Full

Hourly Weather History & Observations

Time (EST) Temp. Windchill Dew Point Humidity Pressure Visibility Wind Dir Wind Speed Gust Speed Precip Events Conditions
12:09 AM 51.8 °F - 32.0 °F 47% 30.14 in 10.0 mi South 8.1 mph - N/A   Clear
12:29 AM 51.8 °F - 32.0 °F 47% 30.14 in 10.0 mi South 5.8 mph - N/A   Clear
12:49 AM 51.8 °F - 32.0 °F 47% 30.14 in 10.0 mi SSW 5.8 mph - N/A   Clear
1:09 AM 50.0 °F - 32.0 °F 50% 30.14 in 10.0 mi South 5.8 mph - N/A   Clear
1:29 AM 44.6 °F 42.2 °F 32.0 °F 61% 30.14 in 10.0 mi SSE 4.6 mph - N/A   Clear
1:49 AM 42.8 °F 38.0 °F 32.0 °F 66% 30.13 in 10.0 mi SE 8.1 mph - N/A   Clear
2:10 AM 42.8 °F 38.6 °F 32.0 °F 66% 30.13 in 10.0 mi SSE 6.9 mph - N/A   Clear
2:30 AM 42.8 °F 39.3 °F 33.8 °F 70% 30.14 in 10.0 mi SSE 5.8 mph - N/A   Clear
2:50 AM 42.8 °F 39.3 °F 32.0 °F 66% 30.15 in 10.0 mi SSE 5.8 mph - N/A   Clear
3:10 AM 42.8 °F 40.1 °F 32.0 °F 66% 30.14 in 10.0 mi SSE 4.6 mph - N/A   Clear
3:30 AM 42.8 °F 39.3 °F 32.0 °F 66% 30.14 in 10.0 mi South 5.8 mph - N/A   Clear
3:50 AM 42.8 °F 38.6 °F 32.0 °F 66% 30.13 in 10.0 mi South 6.9 mph - N/A   Clear
4:10 AM 42.8 °F 38.6 °F 32.0 °F 66% 30.13 in 10.0 mi SSE 6.9 mph - N/A   Clear
4:30 AM 42.8 °F 39.3 °F 32.0 °F 66% 30.14 in 10.0 mi SSE 5.8 mph - N/A   Clear
4:50 AM 42.8 °F 38.6 °F 32.0 °F 66% 30.14 in 10.0 mi SSE 6.9 mph - N/A   Clear
5:10 AM 42.8 °F 39.3 °F 32.0 °F 66% 30.14 in 10.0 mi SSE 5.8 mph - N/A   Clear
5:30 AM 42.8 °F 39.3 °F 32.0 °F 66% 30.14 in 10.0 mi SSE 5.8 mph - N/A   Clear
5:50 AM 42.8 °F 40.1 °F 32.0 °F 66% 30.14 in 10.0 mi SSE 4.6 mph - N/A   Clear
6:10 AM 42.8 °F 40.1 °F 32.0 °F 66% 30.13 in 10.0 mi SSE 4.6 mph - N/A   Clear
6:30 AM 44.6 °F 42.2 °F 32.0 °F 61% 30.13 in 10.0 mi South 4.6 mph - N/A   Clear
6:50 AM 48.2 °F - 32.0 °F 54% 30.13 in 10.0 mi South 6.9 mph - N/A   Clear
7:10 AM 48.2 °F - 32.0 °F 54% 30.14 in 10.0 mi South 5.8 mph - N/A   Clear
7:30 AM 48.2 °F - 32.0 °F 54% 30.13 in 10.0 mi South 5.8 mph - N/A   Clear
7:50 AM 48.2 °F - 32.0 °F 54% 30.14 in 10.0 mi South 4.6 mph - N/A   Clear
8:10 AM 50.0 °F - 32.0 °F 50% 30.14 in 10.0 mi South 5.8 mph - N/A   Clear
8:30 AM 51.8 °F - 33.8 °F 50% 30.13 in 10.0 mi South 6.9 mph - N/A   Clear
8:50 AM 51.8 °F - 32.0 °F 47% 30.13 in 10.0 mi South 8.1 mph - N/A   Clear
9:10 AM 51.8 °F - 32.0 °F 47% 30.13 in 10.0 mi South 10.4 mph - N/A   Clear
9:30 AM 51.8 °F - 33.8 °F 50% 30.13 in 10.0 mi South 11.5 mph 17.3 mph N/A   Clear
9:50 AM 51.8 °F - 35.6 °F 54% 30.13 in 10.0 mi South 11.5 mph - N/A   Clear
10:10 AM 51.8 °F - 35.6 °F 54% 30.14 in 10.0 mi South 10.4 mph 17.3 mph N/A   Clear
10:31 AM 53.6 °F - 37.4 °F 54% 30.14 in 10.0 mi South 6.9 mph 17.3 mph N/A   Clear
10:51 AM 53.6 °F - 37.4 °F 54% 30.13 in 10.0 mi SSW 8.1 mph - N/A   Clear
11:11 AM 53.6 °F - 37.4 °F 54% 30.12 in 10.0 mi South 5.8 mph - N/A   Clear
11:31 AM 53.6 °F - 39.2 °F 58% 30.12 in 10.0 mi SSW 8.1 mph - N/A   Clear
11:51 AM 55.4 °F - 41.0 °F 58% 30.10 in 10.0 mi SSW 8.1 mph - N/A   Clear
12:11 PM 55.4 °F - 41.0 °F 58% 30.10 in 10.0 mi SSW 8.1 mph - N/A   Clear
12:31 PM 55.4 °F - 42.8 °F 63% 30.10 in 10.0 mi SW 6.9 mph - N/A   Clear
12:51 PM 55.4 °F - 42.8 °F 63% 30.09 in 10.0 mi SSW 6.9 mph - N/A   Clear
1:11 PM 55.4 °F - 42.8 °F 63% 30.08 in 10.0 mi SW 5.8 mph - N/A   Clear
1:31 PM 57.2 °F - 42.8 °F 59% 30.06 in 10.0 mi South 9.2 mph - N/A   Clear
1:51 PM 59.0 °F - 44.6 °F 59% 30.05 in 10.0 mi South 8.1 mph - N/A   Clear
2:11 PM 59.0 °F - 44.6 °F 59% 30.04 in 10.0 mi South 10.4 mph 16.1 mph N/A   Clear
2:31 PM 59.0 °F - 44.6 °F 59% 30.04 in 10.0 mi SSW 8.1 mph - N/A   Clear
2:51 PM 59.0 °F - 44.6 °F 59% 30.03 in 10.0 mi South 8.1 mph - N/A   Clear
3:11 PM 59.0 °F - 46.4 °F 63% 30.04 in 10.0 mi South 5.8 mph - N/A   Clear
3:31 PM 59.0 °F - 46.4 °F 63% 30.03 in 10.0 mi South 6.9 mph - N/A   Clear
3:51 PM 59.0 °F - 46.4 °F 63% 30.03 in 10.0 mi South 5.8 mph - N/A   Clear
4:11 PM 59.0 °F - 46.4 °F 63% 30.05 in 10.0 mi South 5.8 mph - N/A   Clear
4:31 PM 55.4 °F - 46.4 °F 72% 30.05 in 10.0 mi ESE 8.1 mph - N/A   Scattered Clouds
4:51 PM 51.8 °F - 44.6 °F 76% 30.06 in 10.0 mi SSE 6.9 mph - N/A   Scattered Clouds
5:11 PM 51.8 °F - 44.6 °F 76% 30.06 in 10.0 mi SSE 6.9 mph - N/A   Clear
5:31 PM 51.8 °F - 44.6 °F 76% 30.07 in 10.0 mi South 4.6 mph - N/A   Clear
5:51 PM 51.8 °F - 46.4 °F 82% 30.06 in 10.0 mi SSE 3.5 mph - N/A   Clear
6:11 PM 51.8 °F - 46.4 °F 82% 30.07 in 10.0 mi South 4.6 mph - N/A   Clear
6:31 PM 51.8 °F - 46.4 °F 82% 30.07 in 10.0 mi SSE 5.8 mph - N/A   Clear
6:51 PM 51.8 °F - 46.4 °F 82% 30.07 in 10.0 mi SSE 5.8 mph - N/A   Clear
7:11 PM 53.6 °F - 48.2 °F 82% 30.06 in 10.0 mi South 6.9 mph - N/A   Clear
7:32 PM 55.4 °F - 50.0 °F 82% 30.07 in 10.0 mi SSW 3.5 mph - N/A   Clear
7:52 PM 55.4 °F - 50.0 °F 82% 30.07 in 10.0 mi SSW 3.5 mph - N/A   Clear
8:12 PM 55.4 °F - 50.0 °F 82% 30.06 in 10.0 mi South 5.8 mph - N/A   Clear
8:32 PM 59.0 °F - 51.8 °F 77% 30.06 in 10.0 mi SSW 8.1 mph - N/A   Clear
8:52 PM 59.0 °F - 50.0 °F 72% 30.05 in 10.0 mi South 8.1 mph - N/A   Clear
9:12 PM 59.0 °F - 50.0 °F 72% 30.06 in 10.0 mi SSW 8.1 mph - N/A   Clear
9:32 PM 59.0 °F - 50.0 °F 72% 30.06 in 10.0 mi SSW 9.2 mph - N/A   Clear
9:52 PM 59.0 °F - 50.0 °F 72% 30.06 in 10.0 mi SSW 6.9 mph - N/A   Clear
10:12 PM 59.0 °F - 50.0 °F 72% 30.06 in 10.0 mi SSW 6.9 mph - N/A   Clear
10:32 PM 59.0 °F - 50.0 °F 72% 30.07 in 10.0 mi SSW 8.1 mph - N/A   Clear
10:52 PM 59.0 °F - 50.0 °F 72% 30.07 in 10.0 mi SSW 6.9 mph - N/A   Clear
11:12 PM 59.0 °F - 50.0 °F 72% 30.06 in 10.0 mi SSW 6.9 mph - N/A   Clear
11:32 PM 59.0 °F - 50.0 °F 72% 30.06 in 10.0 mi South 10.4 mph - N/A   Clear
11:52 PM 59.0 °F - 50.0 °F 72% 30.06 in 10.0 mi SSW 8.1 mph - N/A   Clear